Flight Track Log - Related Links

Times and Time Zones

All times are in EDT time to prevent confusion due to time zone crossing. See the N39PH flight status page for this flight to view local times or setup timezone preferences in your user account.

Time Position Orientation Groundspeed Altitude Reporting Facility
EDT Latitude Longitude Course Direction KTS MPH feet Rate Location/Type
Thu 04:32:37 AM 38.4986 -107.8956 62° Northeast 156 180 12,500  Level Denver Center
Thu 04:33:38 AM 38.5225 -107.8397 61° Northeast 169 194 14,500 1,736 Climbing Denver Center
Thu 04:34:38 AM 38.5394 -107.7836 69° East 169 194 16,000 1,600 Climbing Denver Center
Thu 04:35:38 AM 38.5622 -107.7264 63° Northeast 179 206 17,700 1,140 Climbing Denver Center
Thu 04:36:39 AM 38.5817 -107.6714 66° East 178 205 18,300 992 Climbing Denver Center
Thu 04:37:00 AM 38.6733 -107.4241 62° Northeast  Level FlightAware Approximate
Thu 04:37:39 AM 38.6017 -107.6047 69° East 193 222 19,700  Level Denver Center
Thu 04:38:39 AM 38.6267 -107.5283 67° East 207 238 20,500 645 Climbing Denver Center
Thu 04:39:40 AM 38.6519 -107.4661 63° Northeast 207 238 21,000 298 Climbing Denver Center
Thu 04:40:40 AM 38.6767 -107.3917 67° East 227 261 21,100  Climbing Denver Center
Thu 04:41:40 AM 38.7111 -107.2997 64° Northeast 248 285 21,000 -50 Descending Denver Center
Thu 04:42:41 AM 38.7442 -107.2231 61° Northeast 255 293 21,000  Level Denver Center
Thu 04:43:41 AM 38.7758 -107.1494 61° Northeast 257 296 21,000  Level Denver Center
Thu 04:44:41 AM 38.8086 -107.0647 64° Northeast 262 302 21,000  Level Denver Center
Thu 04:45:41 AM 38.8433 -106.9775 63° Northeast 271 312 21,000  Level Denver Center
Thu 04:46:42 AM 38.8786 -106.8925 62° Northeast 271 312 21,000  Level Denver Center
Thu 04:47:42 AM 38.9119 -106.8019 65° Northeast 272 313 21,000 50 Level Denver Center
Thu 04:48:42 AM 38.9364 -106.6967 73° East 275 316 21,100  Climbing Denver Center
Thu 04:49:43 AM 38.9642 -106.6111 67° East 273 314 21,000 -50 Descending Denver Center
Thu 04:50:43 AM 38.9975 -106.5283 63° Northeast 271 312 21,000 50 Level Denver Center
Thu 04:51:43 AM 39.0253 -106.4406 68° East 276 318 21,100  Climbing Denver Center
Thu 04:52:43 AM 39.0608 -106.3417 65° Northeast 273 314 21,000  Descending Denver Center
Thu 04:53:44 AM 39.0875 -106.2544 68° East 274 315 21,100 50 Climbing Denver Center
Thu 04:54:44 AM 39.1208 -106.1719 62° Northeast 271 312 21,100 -50 Level Denver Center
Thu 04:55:44 AM 39.1556 -106.0803 64° Northeast 277 319 21,000 -50 Descending Denver Center
Thu 04:56:44 AM 39.1833 -105.9897 68° East 273 314 21,000 -50 Level Denver Center
Thu 04:57:45 AM 39.2100 -105.9000 69° East 268 308 20,900 -545 Descending Denver Center
Thu 04:58:45 AM 39.2431 -105.8136 64° Northeast 266 306 19,900 -1,000 Descending Denver Center
Thu 04:59:57 AM 39.2836 -105.7094 63° Northeast 274 315 18,700 -773 Descending Denver Center
Thu 05:00:57 AM 39.3117 -105.6228 67° East 264 304 18,200 -793 Descending Denver Center
Thu 05:01:58 AM 39.3372 -105.5383 69° East 253 291 17,100 -1,041 Descending Denver Center
Thu 05:02:58 AM 39.3675 -105.4572 64° Northeast 248 285 16,100 -900 Descending Denver Center
Thu 05:03:58 AM 39.3767 -105.3733 82° East 236 272 15,300 -843 Descending Denver Center
Thu 05:04:59 AM 39.3672 -105.2794 97° East 242 278 14,400 -793 Descending Denver Center
Thu 05:05:59 AM 39.3633 -105.1942 93° East 241 277 13,700 -900 Descending Denver Center
Thu 05:06:59 AM 39.3611 -105.1128 92° East 233 268 12,600 -1,200 Descending Denver Center
Thu 05:07:59 AM 39.3578 -105.0333 93° East 225 259 11,300 -1,190 Descending Denver Center
Thu 05:09:00 AM 39.3561 -104.9572 92° East 215 247 10,200 -1,041 Descending Denver Center
Thu 05:10:00 AM 39.3569 -104.8850 89° East 205 236 9,200 -700 Descending Denver Center
Thu 05:11:00 AM 39.3906 -104.8425 44° Northeast 178 205 8,800 -450 Descending Denver Center
Thu 05:12:00 AM 39.4336 -104.8442 358° North 152 175 8,300 -545 Descending Denver Center
Thu 05:13:01 AM 39.4736 -104.8464 358° North 144 166 7,700 -744 Descending Denver Center
Thu 05:14:01 AM 39.5131 -104.8467 360° North 142 163 6,800 -800 Descending Denver Center
Thu 05:15:01 AM 39.5492 -104.8489 357° North 133 153 6,100 -700 Descending Denver Center
Thu 05:17:00 AM 39.5667 -104.8333 23° Northeast  Level FlightAware Approximate
Thu 05:24:00 AM 39.5701 -104.8493 23° Northeast  Level Estimated
Thu 05:25:00 AM 39.5701 -104.8493 23° Northeast  Level Estimated
Thu 05:26:00 AM 39.5701 -104.8493 23° Northeast  Level Estimated

Login

Don't have an account? Register now (free) for customized features, flight alerts, and more!